Hourly Weather Bolshie Setki

Today, 20 June, Sunday

Time Temperature Precipitation Wind Pressure Humidity
00:00 +18°C° 0 mm 2 mps 754 mmHg 80%
01:00 +18°C° 0 mm 2 mps 754 mmHg 82%
02:00 +17°C° 0 mm 2 mps 754 mmHg 84%
03:00 +18°C° 0 mm 2 mps 754 mmHg 82%
04:00 +20°C° 0 mm 1 mps 754 mmHg 81%
05:00 +20°C° 0 mm 1 mps 754 mmHg 80%
06:00 +21°C° 0 mm 2 mps 754 mmHg 72%
07:00 +24°C° 0 mm 2 mps 754 mmHg 65%
08:00 +26°C° 0 mm 2 mps 754 mmHg 58%
09:00 +28°C° 0 mm 2 mps 754 mmHg 53%
10:00 +29°C° 0 mm 2 mps 753 mmHg 48%
11:00 +30°C° 0 mm 3 mps 753 mmHg 44%
12:00 +31°C° 0 mm 3 mps 753 mmHg 42%
13:00 +31°C° 0 mm 3 mps 753 mmHg 40%
14:00 +33°C° 0 mm 3 mps 752 mmHg 39%
15:00 +31°C° 0 mm 2 mps 752 mmHg 43%
16:00 +31°C° 0 mm 2 mps 752 mmHg 46%
17:00 +30°C° 0 mm 2 mps 752 mmHg 49%
18:00 +28°C° 0 mm 2 mps 752 mmHg 58%
19:00 +26°C° 0 mm 2 mps 752 mmHg 67%
20:00 +24°C° 0 mm 2 mps 752 mmHg 75%
21:00 +23°C° 0 mm 2 mps 752 mmHg 78%
22:00 +23°C° 0 mm 2 mps 752 mmHg 80%
23:00 +21°C° 0 mm 2 mps 752 mmHg 82%

Tomorrow, 21 June, Monday

Time Temperature Precipitation Wind Pressure Humidity
00:00 +20°C° 0 mm 2 mps 752 mmHg 84%
01:00 +20°C° 0 mm 2 mps 752 mmHg 86%
02:00 +20°C° 0 mm 2 mps 752 mmHg 88%
03:00 +21°C° 0 mm 1 mps 752 mmHg 86%
04:00 +22°C° 0 mm 1 mps 752 mmHg 85%
05:00 +23°C° 0 mm 1 mps 752 mmHg 83%
06:00 +25°C° 0 mm 1 mps 752 mmHg 75%
07:00 +26°C° 0 mm 1 mps 753 mmHg 68%
08:00 +28°C° 0 mm 2 mps 753 mmHg 61%
09:00 +29°C° 0.1 mm 2 mps 753 mmHg 57%
10:00 +30°C° 0.1 mm 2 mps 753 mmHg 53%
11:00 +31°C° 0.1 mm 2 mps 753 mmHg 49%
12:00 +31°C° 0 mm 2 mps 752 mmHg 47%
13:00 +32°C° 0 mm 2 mps 752 mmHg 46%
14:00 +32°C° 0 mm 2 mps 752 mmHg 44%
15:00 +32°C° 0 mm 2 mps 752 mmHg 46%
16:00 +31°C° 0 mm 2 mps 752 mmHg 48%
17:00 +31°C° 0 mm 2 mps 752 mmHg 50%
18:00 +29°C° 0 mm 2 mps 752 mmHg 57%
19:00 +26°C° 0 mm 2 mps 752 mmHg 64%
20:00 +24°C° 0 mm 2 mps 752 mmHg 72%
21:00 +23°C° 0 mm 2 mps 752 mmHg 74%
22:00 +21°C° 0 mm 2 mps 752 mmHg 76%
23:00 +20°C° 0 mm 2 mps 752 mmHg 79%

Day after tomorrow, 22 June, Tuesday

Time Temperature Precipitation Wind Pressure Humidity
00:00 +20°C° 0 mm 2 mps 752 mmHg 81%
01:00 +21°C° 0 mm 1 mps 752 mmHg 84%
02:00 +20°C° 0 mm 1 mps 752 mmHg 87%
03:00 +21°C° 0 mm 1 mps 753 mmHg 85%
04:00 +22°C° 0 mm 1 mps 753 mmHg 84%
05:00 +22°C° 0 mm 1 mps 753 mmHg 82%
06:00 +24°C° 0 mm 1 mps 753 mmHg 75%
07:00 +26°C° 0 mm 2 mps 753 mmHg 68%
08:00 +28°C° 0 mm 2 mps 753 mmHg 61%
09:00 +29°C° 0 mm 2 mps 753 mmHg 56%
10:00 +30°C° 0 mm 2 mps 753 mmHg 50%
11:00 +32°C° 0 mm 2 mps 753 mmHg 44%
12:00 +32°C° 0 mm 2 mps 753 mmHg 42%
13:00 +34°C° 0 mm 2 mps 752 mmHg 40%
14:00 +35°C° 0 mm 2 mps 752 mmHg 38%
15:00 +34°C° 0 mm 2 mps 752 mmHg 40%
16:00 +34°C° 0 mm 2 mps 752 mmHg 43%
17:00 +34°C° 0 mm 2 mps 752 mmHg 46%
18:00 +30°C° 0 mm 2 mps 752 mmHg 53%
19:00 +28°C° 0 mm 2 mps 752 mmHg 61%
20:00 +26°C° 0 mm 1 mps 752 mmHg 69%
21:00 +25°C° 0 mm 2 mps 752 mmHg 70%
22:00 +24°C° 0 mm 2 mps 752 mmHg 72%
23:00 +23°C° 0 mm 2 mps 752 mmHg 73%

23 June, Wednesday

Time Temperature Precipitation Wind Pressure Humidity
00:00 +21°C° 0 mm 2 mps 752 mmHg 76%
01:00 +21°C° 0 mm 2 mps 753 mmHg 79%
02:00 +20°C° 0 mm 2 mps 753 mmHg 82%
03:00 +21°C° 0 mm 2 mps 753 mmHg 82%
04:00 +22°C° 0 mm 1 mps 753 mmHg 81%
05:00 +23°C° 0 mm 1 mps 753 mmHg 81%
06:00 +25°C° 0 mm 1 mps 753 mmHg 74%
07:00 +27°C° 0 mm 2 mps 753 mmHg 67%
08:00 +29°C° 0 mm 2 mps 754 mmHg 60%
09:00 +30°C° 0 mm 2 mps 753 mmHg 54%
10:00 +32°C° 0 mm 2 mps 753 mmHg 48%
11:00 +34°C° 0 mm 2 mps 753 mmHg 41%
12:00 +35°C° 0 mm 2 mps 753 mmHg 39%
13:00 +35°C° 0 mm 3 mps 753 mmHg 36%
14:00 +36°C° 0 mm 3 mps 753 mmHg 33%
15:00 +35°C° 0 mm 3 mps 753 mmHg 37%
16:00 +35°C° 0 mm 3 mps 753 mmHg 40%
17:00 +34°C° 0 mm 2 mps 753 mmHg 43%
18:00 +31°C° 0 mm 2 mps 753 mmHg 52%
19:00 +29°C° 0 mm 2 mps 753 mmHg 60%
20:00 +26°C° 0 mm 2 mps 752 mmHg 68%
21:00 +26°C° 0 mm 2 mps 752 mmHg 71%
22:00 +25°C° 0 mm 2 mps 752 mmHg 73%
23:00 +24°C° 0 mm 2 mps 752 mmHg 75%

24 June, Thursday

Time Temperature Precipitation Wind Pressure Humidity
00:00 +23°C° 0 mm 2 mps 752 mmHg 77%
01:00 +23°C° 0 mm 2 mps 753 mmHg 79%
02:00 +21°C° 0 mm 2 mps 753 mmHg 81%
03:00 +23°C° 0 mm 2 mps 753 mmHg 80%
04:00 +24°C° 0 mm 2 mps 753 mmHg 79%
05:00 +24°C° 0 mm 2 mps 753 mmHg 78%
06:00 +26°C° 0 mm 2 mps 753 mmHg 71%
07:00 +28°C° 0 mm 2 mps 753 mmHg 63%
08:00 +30°C° 0 mm 2 mps 753 mmHg 56%
09:00 +31°C° 0 mm 2 mps 753 mmHg 50%
10:00 +34°C° 0 mm 3 mps 752 mmHg 45%
11:00 +35°C° 0 mm 3 mps 752 mmHg 39%
12:00 +35°C° 0 mm 3 mps 752 mmHg 37%
13:00 +36°C° 0 mm 3 mps 752 mmHg 35%
14:00 +36°C° 0 mm 3 mps 752 mmHg 33%
15:00 +36°C° 0 mm 3 mps 751 mmHg 35%
16:00 +35°C° 0 mm 3 mps 751 mmHg 38%
17:00 +35°C° 0 mm 3 mps 751 mmHg 41%
18:00 +31°C° 0 mm 3 mps 750 mmHg 50%
19:00 +29°C° 0 mm 2 mps 750 mmHg 59%
20:00 +26°C° 0 mm 2 mps 750 mmHg 68%
21:00 +25°C° 0.1 mm 3 mps 750 mmHg 75%
22:00 +22°C° 0.1 mm 3 mps 751 mmHg 81%
23:00 +21°C° 0.1 mm 4 mps 751 mmHg 88%

25 June, Friday

Time Temperature Precipitation Wind Pressure Humidity
00:00 +20°C° 0.1 mm 3 mps 751 mmHg 90%
01:00 +20°C° 0.1 mm 2 mps 750 mmHg 93%
02:00 +19°C° 0.1 mm 2 mps 750 mmHg 95%
03:00 +20°C° 0 mm 2 mps 750 mmHg 93%
04:00 +21°C° 0 mm 2 mps 750 mmHg 91%
05:00 +21°C° 0 mm 2 mps 750 mmHg 89%
06:00 +25°C° 0 mm 2 mps 750 mmHg 80%
07:00 +27°C° 0 mm 2 mps 750 mmHg 72%
08:00 +29°C° 0 mm 2 mps 749 mmHg 63%
09:00 +31°C° 0 mm 2 mps 749 mmHg 56%
10:00 +32°C° 0 mm 2 mps 749 mmHg 48%
11:00 +35°C° 0 mm 2 mps 749 mmHg 41%
12:00 +35°C° 0 mm 3 mps 749 mmHg 39%
13:00 +36°C° 0 mm 3 mps 749 mmHg 37%
14:00 +36°C° 0 mm 3 mps 748 mmHg 35%
15:00 +35°C° 0.1 mm 3 mps 748 mmHg 42%
16:00 +33°C° 0.1 mm 4 mps 747 mmHg 49%
17:00 +30°C° 0.1 mm 4 mps 747 mmHg 57%
18:00 +27°C° 1.3 mm 3 mps 748 mmHg 69%
19:00 +24°C° 1.3 mm 2 mps 748 mmHg 82%
20:00 +20°C° 1.3 mm 2 mps 749 mmHg 95%
21:00 +19°C° 0 mm 2 mps 748 mmHg 95%
22:00 +19°C° 0 mm 2 mps 748 mmHg 95%
23:00 +19°C° 0 mm 2 mps 747 mmHg 95%
Show more